THORAD AGENA D DEB, 4640

Orbit data source: Space-Track

THORAD AGENA D DEB, 4640 is space debris in SSO originally from a launch on Wed, 08 Apr 1970 UTC launched from the Air Force Western Test Range (AFWTR). Debris objects in space refer to the collection of defunct objects orbiting the Earth. Examples of debris include non-operational satellites, rocket bodies, and fragments generated from explosions, collisions, or faulty payload assembly.

Loading next visibility...
Identifier
4640, 1970-025Y
Orbit
SSO
Country
Flag of USUS
Related business
Manufacturer
Unknown
Mission
Spacecraft
Bus & Motor
Unknown
Mass
Unknown
Launch date (UTC)
1970-04-08 (56 years ago)
Launch vehicle
Unknown
Launch site
Air Force Western Test Range (AFWTR)
Object type
Payload
Rocket body
Debris
Shape & HBR
Unknown shape, 0.2 m
Radar Cross Section
Small (<0.1 m²)

Expand to show TLE details & history
Last TLE update: 23 hours ago

TLE from 23 hours ago
0 THORAD AGENA D DEB
1 04640U 70025Y   25300.56286166  .00000515  00000-0  99871-3 0  9996
2 04640 100.0228  59.0327 0121765 152.5712 225.1891 13.38992688700956
Epoch: 2025-10-27T13:30Z
TLE epoch observation values (Epoch: 2025-10-27T13:30:31.247Z)
Latitude
16.50271°
Longitude
177.25336°
Altitude
1,180.009 km
Speed
7.233 km/s
True Right ascension
03h 44m 11s
True Declination
16° 24' 52"
Sunlit
Object was in full shadow at epoch
Visualization orbit readout
Latitude
Unknown
Longitude
Unknown
Altitude
Unknown
Speed
Unknown
Apparent Right ascension
Unknown
Apparent Declination
Unknown
Sunlit
N/A
Visualization observer readout
Local Sidereal Time
07:58:15
Azimuth
Unknown
Elevation
Unknown
Doppler factor
Unknown
Orbital elements
Apogee altitude
1,201.55 km
Perigee altitude
1,019.182 km
Semi-major axis
7,488.503 km
Eccentricity
0.01218
Inclination
100.0228°
RAAN
59.0327°
Arg. of periapsis
152.5712°
True anomaly
224.20976°
Mean anomaly
225.1891°
Eccentric anomaly
224.69838°
Mean motion
3.34927 °/min
Orbital period
107.49 mins
BSTAR
0.00099871
Loading maneuver chart data...
Computing Atmospheric mass density...

Documentation

Showing up to 5 results
|